Temperature
18 18 18 18 18 18 18 18 18 18 18 18 18 18 18 18 18 18 18 18 18 18 18 18 18 18 18 18 18 18 18 18 18 18 18 18 18 18 18 18 18 18 18
18 18 18 18 18 18 18 18 18 18 18 18 18 18 18 18 18 18 18 18 18 18 18 18 18 18 18 18 18 18 18 18 18 18 18 18 18 18 18 18 18 18 18
18 18 18 18 18 18 18 18 18 18 18 18 18 18 18 18 18 18 18 18 18 18 18 18 18 18 18 18 18 18 18 18 18 18 18 18 18 18 18 18 18 18 18
18 18 18 18 18 18 18 18 18 18 18 18 18 18 18 18 18 18 18 18 18 18 18 18 18 18 18 18 18 18 18 18 18 18 18 18 17 17 18 18 18 18 18
18 18 18 18 18 18 18 18 18 18 18 17 17 18 18 18 18 18 18 18 18 17 17 17 17 17 17 17 17 17 17 18 17 17 17 17 17 17 17 17 17 17 18
18 18 18 18 18 18 18 18 18 17 17 17 17 17 18 18 17 17 17 17 17 17 17 17 17 17 17 17 17 17 17 17 17 17 17 17 17 17 17 17 17 17 17
18 18 18 18 18 18 18 18 18 17 17 17 17 17 17 17 17 17 17 17 17 17 17 17 17 17 17 17 17 17 17 17 17 17 17 17 17 17 17 17 17 17 17
18 18 18 18 18 18 18 18 17 17 17 17 17 17 17 17 17 17 17 17 17 17 17 17 17 17 17 17 17 17 17 17 17 17 17 17 17 17 17 17 17 17 17
18 18 18 18 18 18 18 18 17 17 17 17 17 17 17 17 17 17 17 17 17 17 17 17 17 17 16 17 17 16 16 17 17 17 16 16 17 17 16 16 16 17 16
18 18 18 18 18 18 17 17 17 17 17 17 17 17 17 17 17 17 17 17 17 17 17 17 17 16 16 16 16 16 16 16 16 16 16 16 16 16 16 16 16 16 16
18 18 18 18 18 17 17 17 17 17 17 17 17 17 17 17 17 17 16 16 17 17 16 16 16 16 16 16 16 16 16 16 16 16 16 16 16 16 16 16 16 16 16
18 18 18 18 18 17 17 17 17 17 17 17 17 17 17 17 17 16 16 16 16 16 16 16 16 16 16 16 16 16 16 16 16 16 16 16 16 16 16 16 16 16 16
18 18 18 18 18 17 17 17 17 17 17 17 17 17 16 16 16 16 16 16 16 16 16 16 16 16 16 16 16 16 16 16 16 16 16 16 16 16 16 16 16 16 16
18 18 18 18 18 17 17 17 17 17 17 17 17 17 16 16 16 16 16 16 16 16 16 16 16 16 16 16 16 16 16 16 16 16 16 16 16 16 16 16 16 16 16
18 18 18 18 18 17 17 17 17 17 17 17 17 16 16 16 16 16 16 16 16 16 16 16 16 16 16 16 16 16 16 16 16 16 16 15 15 15 15 15 15 15 15
19 18 18 18 18 17 17 17 17 17 17 17 17 16 16 16 16 16 16 16 16 16 16 16 16 16 16 15 15 15 15 16 15 15 15 15 15 15 15 15 15 15 15
19 18 18 18 18 17 17 17 17 17 17 17 17 16 16 16 16 16 16 16 16 16 15 15 15 15 15 15 15 15 15 15 15 15 15 15 15 15 15 15 15 15 15
19 19 18 18 18 17 17 17 17 17 17 17 16 16 16 16 16 16 16 16 15 15 15 15 15 15 15 15 15 15 15 15 15 15 15 15 15 15 15 15 15 14 14
19 19 18 18 18 17 17 17 17 17 17 16 16 16 16 16 16 16 16 15 15 15 15 15 15 15 15 15 15 15 15 15 15 14 15 15 14 14 14 14 14 14 14
19 19 18 18 18 17 17 17 17 17 16 16 16 16 16 16 16 16 15 15 15 15 15 15 15 15 15 15 15 15 15 14 14 14 14 14 14 14 14 14 14 14 14
19 19 18 18 18 17 17 17 17 17 16 16 16 16 16 16 16 16 15 15 15 15 15 15 15 15 15 15 15 14 14 14 14 14 14 14 14 14 14 14 14 14 14
19 19 18 18 18 17 17 17 17 17 16 16 16 16 16 16 15 15 15 15 15 15 15 15 14 14 14 14 14 14 14 14 14 14 14 14 14 14 14 14 14 13 13
19 19 18 18 18 17 17 17 17 16 16 16 16 16 16 15 15 15 15 15 15 15 15 14 14 14 14 14 14 14 14 13 13 14 14 14 14 14 13 13 13 13 13
19 19 18 18 18 17 17 17 17 17 16 16 16 16 16 15 15 15 15 15 15 15 15 14 14 14 14 14 14 14 14 13 13 13 13 13 13 13 13 13 13 13 13
18 18 18 18 18 17 17 17 17 17 16 16 16 16 15 15 15 15 15 15 15 15 14 14 14 14 14 14 14 14 14 13 13 13 13 13 13 13 13 13 13 13 13
18 18 18 18 17 17 17 17 17 17 16 16 16 16 15 15 15 15 15 15 15 14 14 14 14 14 14 14 13 13 13 13 13 13 13 13 13 13 13 13 13 13 13
Wind_Speed
0 1 6 8 10 10 11 12 12 13 13 12 13 13 14 14 14 14 14 14 14 14 14 14 14 15 15 14 15 14 14 14 14 14 13 13 12 12 11 10 9 7 8
4 3 7 8 9 10 11 12 12 13 13 13 13 13 13 13 14 14 14 14 14 14 14 14 14 14 14 14 14 13 13 14 14 14 13 12 12 12 11 11 10 8 10
5 5 7 9 10 10 11 11 12 13 13 13 13 13 13 13 13 13 13 13 13 13 14 14 14 14 14 14 13 13 13 13 13 13 12 9 10 12 12 12 11 11 11
7 6 7 9 10 11 11 11 12 12 13 13 12 13 13 13 13 12 12 13 13 13 13 13 13 13 13 13 13 13 13 12 12 11 9 8 8 11 11 11 11 12 12
7 6 8 10 10 11 11 11 11 12 12 12 12 13 13 13 13 12 12 12 12 12 12 12 12 13 12 12 12 13 12 12 12 10 9 8 7 10 11 11 11 11 11
6 7 8 10 10 10 11 11 11 11 11 12 12 13 13 13 13 13 12 11 11 11 11 12 12 12 12 12 12 12 12 12 11 9 8 7 7 10 11 11 11 11 11
6 6 8 10 10 11 11 11 11 11 12 12 12 12 12 12 12 12 12 11 10 11 11 11 11 11 11 11 11 11 11 11 10 8 7 7 8 10 11 11 10 11 11
8 7 8 10 10 10 10 10 10 11 11 11 12 12 12 12 11 11 10 10 10 10 10 10 10 10 10 10 11 11 11 10 9 7 6 6 9 10 10 10 11 11 11
7 7 6 7 8 9 9 9 9 10 10 11 10 11 11 11 11 10 9 9 9 9 10 10 10 10 11 11 11 11 12 11 8 6 6 6 9 10 10 10 10 11 11
6 6 5 6 6 6 6 8 8 8 9 9 10 10 10 10 9 9 8 8 9 10 10 9 9 10 11 12 11 11 11 10 8 6 5 7 9 9 9 10 10 10 10
5 5 5 4 4 5 5 6 6 6 7 8 7 8 8 7 7 7 8 9 9 9 9 9 8 9 10 11 11 11 10 8 7 6 6 8 9 9 10 9 9 9 9
5 5 4 5 4 4 4 4 4 4 5 6 6 6 6 6 5 6 6 8 8 8 7 7 8 8 8 7 9 9 7 7 7 6 7 9 9 9 10 10 10 9 9
5 5 5 5 4 4 3 4 3 3 4 5 6 6 6 5 5 5 4 4 6 6 5 6 7 6 6 5 6 7 7 7 6 6 7 9 9 10 10 10 10 10 10
6 5 5 4 4 3 4 4 4 3 3 3 5 6 5 4 3 3 2 2 3 3 4 4 3 4 5 6 6 6 6 6 6 6 7 9 9 10 11 10 10 10 9
6 6 5 5 5 4 4 3 4 3 3 4 5 6 7 4 3 2 2 2 3 3 3 2 2 3 4 5 5 6 5 5 6 6 7 9 10 10 9 9 9 9 9
6 6 6 6 5 5 4 3 3 4 4 5 5 6 8 6 4 3 2 2 2 2 3 3 3 3 3 4 4 4 4 4 5 6 7 8 9 9 9 8 8 8 8
7 6 6 7 6 6 5 4 4 4 5 4 4 6 7 7 5 4 3 2 2 3 4 4 4 4 4 4 3 3 4 4 4 5 6 6 6 7 8 8 7 7 7
6 6 6 7 6 6 5 4 4 4 4 4 4 6 6 6 6 5 3 2 2 4 4 3 3 3 3 3 2 2 2 3 3 4 4 4 4 4 6 6 6 6 6
7 6 6 6 6 5 5 4 4 4 4 4 5 5 5 6 7 5 3 2 4 3 3 3 3 3 3 2 2 2 2 1 1 3 3 3 4 4 4 5 5 5 5
6 6 6 5 5 5 4 4 3 3 2 3 3 4 5 5 6 6 4 3 4 3 2 2 2 2 2 2 2 2 2 1 1 1 1 2 3 4 4 4 4 4 4
6 6 6 5 4 4 3 3 3 2 1 2 2 4 5 5 6 5 3 3 3 3 2 2 2 3 2 2 3 3 4 3 2 1 1 2 1 2 3 3 3 3 3
7 7 6 6 5 5 4 3 3 3 2 2 1 3 4 5 5 5 4 3 2 3 2 2 2 2 1 2 2 2 2 4 3 2 1 1 0 2 2 2 3 3 4
8 8 7 6 6 5 4 3 3 3 2 2 1 1 1 4 5 5 5 4 3 3 2 1 2 3 1 1 1 3 2 2 2 3 2 1 1 1 0 2 2 3 3
8 8 7 7 6 5 6 6 6 4 3 3 2 2 1 3 4 4 5 4 3 3 3 2 2 2 3 1 1 1 1 3 2 1 3 3 2 0 1 1 2 2 3
7 6 6 6 6 5 5 6 6 4 3 2 2 2 1 1 2 3 4 4 3 2 3 2 2 2 2 2 1 0 1 1 1 2 1 3 3 2 1 1 2 2 3
5 5 5 6 6 5 6 6 6 6 5 4 3 2 1 1 1 2 3 3 3 3 3 3 2 3 2 2 1 1 2 2 1 2 2 2 2 2 1 0 1 2 2
Wind_Direction
243 148 93 89 85 78 74 73 73 71 77 83 86 86 87 87 85 83 82 82 80 79 77 76 75 75 74 78 79 79 78 78 81 83 87 91 94 97 96 95 92 93 106
149 119 100 97 91 85 80 79 78 78 78 81 85 85 85 87 88 86 84 82 81 79 79 78 77 75 73 74 77 78 78 78 80 80 81 86 90 92 92 91 91 94 100
123 114 104 103 97 91 86 84 83 82 81 84 85 85 85 86 87 89 87 85 83 81 79 78 78 77 74 73 75 76 75 79 80 77 76 77 84 88 90 91 91 93 93
126 121 113 108 103 97 91 87 85 84 84 86 86 87 85 84 86 88 88 86 85 83 80 78 77 76 74 72 72 73 75 79 80 76 71 72 79 87 88 90 92 91 89
123 125 120 111 106 103 99 94 90 89 88 88 89 86 85 85 87 90 91 89 86 85 82 80 77 76 73 72 71 70 73 76 75 73 71 70 74 86 87 86 87 90 91
129 131 124 116 111 108 105 100 97 93 91 90 90 89 87 86 87 89 89 87 86 85 84 82 79 76 73 72 71 68 68 72 70 72 72 70 76 86 89 86 86 88 91
137 134 128 121 115 109 106 105 101 97 93 94 93 92 91 90 90 89 87 86 86 85 84 81 78 76 72 70 70 68 66 69 75 75 69 71 82 88 89 88 87 89 90
142 141 134 128 122 115 110 108 105 102 98 99 96 95 95 92 91 89 87 85 85 85 81 78 75 73 71 70 73 72 67 70 77 75 69 74 86 90 90 90 89 89 89
134 130 132 135 129 125 120 115 112 110 107 105 101 97 96 93 92 89 85 84 83 80 77 73 68 67 69 70 73 73 69 72 73 73 76 79 86 90 93 93 91 88 85
133 137 142 139 132 132 129 125 123 118 114 111 108 101 96 93 91 87 80 81 84 83 80 73 68 68 69 67 69 71 70 70 68 64 75 82 87 91 92 94 92 90 87
133 144 153 150 146 144 144 133 126 120 117 115 112 109 101 91 86 83 76 79 85 84 81 76 70 67 67 65 64 64 67 67 64 63 75 83 83 87 90 89 89 90 88
145 153 158 160 160 158 149 132 124 115 112 110 111 112 108 97 90 87 78 76 78 78 75 73 73 66 66 65 63 65 69 65 63 64 74 84 84 85 86 87 87 87 84
147 144 153 159 157 150 136 138 133 121 113 108 113 119 111 97 88 78 72 66 63 60 56 60 59 56 62 76 77 76 71 70 66 65 70 81 85 86 85 83 83 80 78
142 144 154 155 145 142 139 143 140 134 127 120 125 124 120 109 91 80 76 64 53 52 52 55 65 58 69 84 90 85 74 73 71 67 68 77 81 82 82 81 80 78 76
151 150 151 147 148 142 126 131 129 140 137 132 130 126 127 122 109 108 90 72 61 65 63 57 67 67 72 79 88 92 86 81 78 76 73 75 78 78 80 82 83 81 80
158 154 144 145 152 136 130 130 132 135 125 118 122 126 125 126 127 116 89 77 69 65 67 77 87 76 68 80 77 85 94 93 88 85 77 71 71 73 76 78 80 83 83
161 152 151 150 143 138 138 134 126 127 116 114 122 128 129 131 128 121 103 87 84 83 78 74 69 70 67 72 72 77 89 91 93 90 83 77 70 71 74 75 76 81 87
150 143 147 149 141 138 137 128 117 120 114 119 127 126 128 130 125 115 107 104 98 87 80 75 69 68 61 65 64 62 75 92 96 96 91 87 79 72 68 71 75 77 84
148 147 142 139 144 141 135 121 113 115 111 114 118 116 117 121 119 113 113 112 102 86 73 85 70 84 76 63 69 60 59 82 99 108 95 99 98 88 80 67 65 73 82
146 144 136 134 134 130 117 100 84 80 90 93 106 116 119 116 117 113 108 102 98 88 68 68 73 62 84 82 74 48 22 28 54 88 113 110 104 101 94 78 63 61 71
146 140 140 140 139 130 123 128 123 124 127 100 108 115 119 113 113 112 108 104 102 106 106 96 93 70 53 66 70 32 7 15 32 42 74 99 104 120 109 100 91 74 60
154 150 148 152 152 152 158 159 156 153 146 141 123 97 113 119 121 124 121 124 120 109 91 87 92 91 47 62 106 87 19 357 359 9 30 103 118 125 111 115 103 92 79
159 164 163 167 164 161 150 129 106 78 58 58 74 100 126 130 126 128 132 128 128 126 132 133 119 119 123 4 95 131 133 221 309 340 354 18 29 101 141 144 131 133 110
177 174 166 166 164 158 145 142 144 149 162 192 183 172 151 137 134 135 140 137 143 143 147 156 125 123 128 139 339 49 150 157 151 312 333 342 344 320 218 158 143 152 143
174 172 168 161 162 157 152 151 148 148 171 168 146 138 146 147 142 143 143 144 154 156 163 158 136 128 130 151 169 145 76 69 112 146 268 316 340 324 303 197 162 156 156
165 157 162 160 165 162 158 155 157 160 161 147 151 162 172 172 189 176 155 156 166 169 178 179 165 158 156 145 153 149 147 148 176 155 195 251 278 303 326 320 180 166 162
Height
1525 1524 1523 1522 1521 1520 1519 1518 1517 1515 1513 1514 1515 1516 1516 1516 1516 1516 1516 1516 1515 1515 1514 1514 1513 1512 1512 1511 1511 1511 1510 1510 1509 1509 1509 1509 1510 1510 1511 1512 1513 1513 1513
1526 1525 1524 1523 1522 1521 1520 1520 1518 1517 1516 1516 1516 1517 1517 1517 1517 1517 1517 1517 1517 1516 1516 1516 1515 1515 1514 1513 1513 1513 1513 1512 1512 1511 1512 1512 1512 1512 1513 1514 1514 1513 1513
1526 1525 1525 1524 1523 1522 1522 1521 1520 1519 1518 1518 1518 1518 1518 1518 1519 1519 1518 1518 1518 1518 1518 1517 1517 1517 1516 1516 1515 1515 1515 1514 1514 1514 1514 1514 1514 1514 1515 1515 1515 1514 1514
1527 1526 1525 1525 1524 1524 1523 1522 1522 1521 1520 1520 1520 1520 1520 1520 1520 1520 1520 1520 1520 1519 1519 1519 1519 1518 1518 1518 1518 1517 1517 1517 1516 1516 1516 1516 1516 1516 1516 1516 1516 1516 1515
1528 1527 1527 1526 1525 1525 1524 1524 1523 1522 1522 1522 1521 1521 1522 1521 1521 1521 1521 1521 1521 1521 1521 1521 1520 1520 1520 1520 1519 1519 1519 1518 1518 1518 1518 1518 1517 1517 1517 1517 1517 1517 1517
1529 1528 1528 1527 1526 1526 1526 1525 1524 1524 1524 1524 1523 1523 1523 1523 1523 1523 1523 1523 1523 1523 1523 1522 1522 1522 1522 1521 1521 1521 1520 1520 1520 1519 1519 1519 1519 1519 1519 1518 1518 1518 1518
1530 1529 1529 1528 1528 1527 1527 1526 1526 1526 1526 1525 1525 1525 1525 1525 1525 1525 1525 1525 1525 1525 1524 1524 1524 1524 1523 1523 1523 1522 1522 1521 1521 1521 1521 1520 1520 1520 1520 1520 1519 1519 1519
1531 1530 1530 1530 1529 1529 1528 1528 1528 1527 1527 1527 1527 1527 1527 1527 1527 1527 1527 1527 1526 1526 1526 1526 1525 1525 1525 1525 1524 1524 1523 1523 1522 1522 1522 1522 1522 1522 1521 1521 1521 1520 1520
1532 1532 1531 1531 1531 1530 1530 1529 1529 1529 1529 1529 1529 1529 1529 1529 1529 1529 1529 1528 1528 1528 1527 1527 1527 1527 1526 1526 1526 1525 1525 1524 1524 1524 1524 1523 1523 1523 1523 1522 1522 1522 1522
1533 1533 1532 1532 1531 1531 1531 1530 1530 1530 1530 1530 1530 1530 1530 1530 1530 1530 1530 1530 1530 1530 1529 1529 1529 1529 1528 1528 1528 1527 1527 1526 1525 1525 1525 1525 1525 1524 1524 1524 1523 1523 1523
1533 1533 1533 1533 1532 1532 1532 1531 1531 1531 1532 1532 1532 1532 1532 1532 1532 1532 1532 1532 1531 1531 1531 1531 1531 1531 1530 1530 1529 1529 1528 1528 1527 1527 1526 1526 1526 1526 1525 1525 1525 1524 1524
1533 1534 1534 1533 1533 1533 1532 1532 1532 1533 1533 1533 1533 1534 1534 1534 1534 1534 1534 1533 1533 1533 1533 1532 1532 1532 1532 1532 1531 1531 1530 1530 1529 1528 1528 1528 1528 1527 1527 1527 1526 1526 1526
1534 1534 1534 1534 1533 1533 1532 1532 1532 1533 1534 1534 1534 1535 1535 1535 1535 1535 1535 1534 1534 1534 1534 1534 1534 1534 1533 1533 1533 1532 1532 1531 1531 1530 1530 1530 1529 1529 1528 1528 1528 1527 1527
1534 1534 1534 1534 1533 1533 1532 1532 1533 1533 1534 1535 1535 1536 1536 1536 1536 1536 1536 1536 1536 1535 1535 1535 1535 1535 1535 1534 1534 1534 1533 1533 1532 1532 1532 1531 1531 1530 1529 1529 1529 1529 1528
1534 1534 1534 1534 1534 1533 1532 1532 1533 1534 1535 1536 1536 1537 1537 1537 1537 1537 1537 1537 1537 1537 1537 1536 1536 1536 1536 1536 1535 1535 1535 1534 1534 1533 1533 1532 1532 1532 1531 1531 1530 1530 1529
1534 1534 1534 1534 1534 1534 1534 1534 1534 1535 1536 1536 1537 1537 1538 1538 1538 1538 1538 1538 1538 1538 1538 1538 1537 1537 1537 1536 1536 1536 1536 1535 1535 1534 1534 1534 1533 1533 1532 1532 1531 1531 1530
1533 1534 1534 1534 1535 1535 1535 1535 1535 1536 1536 1537 1538 1538 1538 1538 1539 1539 1539 1539 1539 1539 1538 1538 1538 1538 1537 1537 1537 1537 1536 1536 1536 1535 1535 1534 1534 1534 1534 1533 1532 1532 1531
1532 1533 1534 1534 1535 1535 1536 1536 1536 1537 1537 1538 1538 1538 1539 1539 1539 1539 1539 1539 1539 1539 1539 1539 1538 1538 1538 1537 1537 1537 1537 1537 1536 1536 1535 1535 1535 1535 1534 1534 1533 1533 1532
1531 1532 1533 1534 1535 1535 1536 1537 1537 1537 1538 1538 1538 1539 1539 1539 1539 1539 1539 1539 1539 1539 1539 1539 1539 1538 1538 1538 1538 1537 1537 1537 1537 1536 1536 1536 1535 1535 1535 1535 1534 1534 1533
1531 1532 1532 1533 1534 1535 1536 1536 1537 1538 1538 1538 1539 1539 1539 1539 1539 1539 1539 1539 1539 1539 1539 1539 1539 1538 1538 1538 1538 1537 1537 1537 1537 1537 1537 1536 1536 1536 1535 1535 1535 1534 1534
1529 1530 1531 1532 1533 1534 1535 1535 1536 1537 1537 1538 1538 1539 1539 1539 1539 1539 1539 1539 1539 1539 1538 1538 1538 1538 1538 1538 1537 1537 1538 1538 1538 1537 1537 1536 1536 1536 1535 1535 1535 1534 1534
1528 1529 1530 1531 1532 1533 1534 1535 1535 1536 1537 1537 1538 1538 1538 1538 1539 1538 1538 1538 1538 1538 1538 1538 1538 1537 1537 1537 1537 1537 1537 1539 1538 1537 1537 1536 1536 1536 1535 1535 1535 1534 1534
1526 1527 1528 1529 1531 1532 1533 1534 1535 1535 1536 1536 1536 1537 1537 1537 1538 1537 1537 1537 1537 1537 1537 1537 1537 1537 1537 1537 1537 1537 1537 1537 1537 1537 1537 1536 1536 1535 1535 1535 1534 1534 1534
1524 1525 1526 1528 1529 1530 1531 1532 1533 1533 1534 1534 1535 1535 1536 1536 1536 1536 1536 1536 1536 1536 1536 1536 1536 1536 1536 1536 1536 1536 1537 1536 1536 1536 1536 1536 1535 1535 1534 1534 1534 1533 1533
1522 1523 1524 1526 1527 1528 1529 1530 1531 1532 1532 1533 1534 1534 1534 1534 1534 1534 1534 1535 1535 1534 1535 1535 1535 1535 1535 1535 1535 1535 1535 1535 1535 1535 1534 1534 1534 1534 1534 1533 1533 1533 1533
1520 1521 1522 1523 1524 1526 1527 1528 1529 1530 1530 1531 1532 1532 1532 1533 1533 1533 1533 1533 1533 1533 1533 1533 1533 1533 1533 1534 1534 1533 1533 1533 1533 1533 1533 1533 1532 1533 1532 1532 1532 1532 1532